sat.trackr.live / text

‹ back to catalog

STARLINK-34569

NORAD 64610 · 2025-137S

PAYLOAD ACTIVE UNKNOWN

§ Identity

Operator
Country
US
Launch date
2025-06-25
Launch site
AFETR
Launch vehicle
Mass (kg)
RCS (m²)

Purposes: comms

External: N2YO · Heavens-Above · Gunter

§ Orbital elements

Epoch: 2026-09-20T09:17:09.787776Z

Period
93.85 min
Inclination
53.1568°
Eccentricity
0.0001267
Mean motion
15.34410105 rev/d
Perigee alt
461.8 km
Apogee alt
463.5 km
Semi-major
6,840.8 km
B*
3.6855e-4
RAAN
148.0693°
Arg perigee
77.5648°
Mean anomaly
282.5497°
Rev number
7,058

§ Raw data

STARLINK-345691 64610U 25137S   26263.38691884  .00012100  00000+0  36855-3 0  99942 64610  53.1568 148.0693 0001267  77.5648 282.5497 15.34410105 70582

JSON: /api/v1/satellites/64610 · /tle

For live sub-satellite position, see the globe view (requires WebGL).

§ Visibility from observer

Set your observer location to see the next 7 days of passes ≥ 10°. The values pass through the URL so the page stays shareable.

No JS? Fill the form by hand. The geolocation button needs JavaScript.